Simultaneous Nadir Overpasses (SNOs) Predictions

Prediction of SNOs between AQUA and NPP Satellite Orbit:

Table of predicted SNOs for the next 14.0 days since TLE Epoch: 1/17/2014
Index Date (AQUA) Time (AQUA) Lat,Lon (AQUA) SZA (AQUA ) Date (NPP) Time (NPP) Lat,Lon (NPP) SZA (NPP ) Distance(km) Time Diff (sec)
1 01/19/2014 04:44:17 72.44, -20.09 121.37 01/19/2014 04:44:05 72.45, -20.06 121.37 0.99 12
2 01/19/2014 05:33:16 -73.95, 150.63 60.20 01/19/2014 05:34:21 -73.95, 150.57 60.25 1.76 65
3 01/21/2014 20:12:00 -70.49, -75.10 57.19 01/21/2014 20:10:57 -70.48, -75.14 57.11 1.52 63
4 01/21/2014 21:00:35 73.19, 97.22 120.09 01/21/2014 21:00:48 73.19, 97.28 120.05 2.17 13
5 01/24/2014 12:28:08 -71.76, 42.79 59.01 01/24/2014 12:27:30 -71.76, 42.84 58.99 1.98 38
6 01/24/2014 13:17:00 73.52,-146.21 119.17 01/24/2014 13:17:39 73.52,-146.19 119.13 0.66 39
7 01/27/2014 04:44:37 -71.86, 158.84 59.72 01/27/2014 04:44:26 -71.85, 158.77 59.69 2.45 11
8 01/27/2014 05:33:18 74.19, -28.85 117.86 01/27/2014 05:34:23 74.19, -28.79 117.77 2.01 65
9 01/29/2014 20:12:06 70.35, 104.69 121.15 01/29/2014 20:11:05 70.34, 104.66 121.23 1.21 61
10 01/29/2014 21:00:45 -72.98, -83.20 61.54 01/29/2014 21:01:00 -72.99, -83.16 61.57 1.41 15




NCC Satellite Simultaneous Nadir Overpasses (SNOs) Prediction Service
